Volver al catálogo

ARIANE 2 DEB

ActivoGTO
NORAD 33558·DEBRIS·🇫🇷 France

Lanzado Jan 27, 1989 desde Guiana Space Centre

Loading…

TLE

ObsoletoSource: Space-Track

Época: Aug 27, 2026, 07:51 UTC

1 33558U 89006BA  26239.32732191 -.00000013  00000-0  00000-0 0  9992
2 33558  10.5612 316.3484 6944810 303.9139   8.5721  2.21844079 22835

Sigue ARIANE 2 DEB en tiempo real con AllMySat

Download on the App Store